Weather History for Darwin, NT

Change the Weather History Date:

Wednesday, July 3, 2013

  Actual Average Record
Temperature  
Mean Temperature 74 °F -  
Max Temperature 84 °F 87 °F 89 °F (1996)
Min Temperature 64 °F 67 °F 59 °F (1999)
Cooling Degree Days 9    
Growing Degree Days 24 (Base 50)    
Moisture  
Dew Point 53 °F    
Average Humidity 50    
Maximum Humidity 83    
Minimum Humidity 24    
Precipitation  
Precipitation 0.00 in 0.00 in - ()
Sea Level Pressure  
Sea Level Pressure 29.93 in    
Wind  
Wind Speed 9 mph ()    
Max Wind Speed 21 mph    
Max Gust Speed -    
Visibility 14.0 miles    
Events      
Averages and records for this station are not official NWS values.
T = Trace of Precipitation, MM = Missing Value Source: Averaged Metar Reports

Daily Weather History Graph

Daily Weather History Graph

Search for Another Location

Airport:

Trip Planner

Search our weather history database for the weather conditions in past years. The results will help you decide how hot, cold, wet, or windy it might be!

Date:

Astronomy

Jul. 03, 2013 Rise Set
Actual Time 7:08 AM ACST 6:33 PM ACST
Civil Twilight 6:45 AM ACST 6:55 PM ACST
Nautical Twilight 6:18 AM ACST 7:22 PM ACST
Astronomical Twilight 5:52 AM ACST 7:48 PM ACST
Moon 2:46 AM ACST (7/3) 2:39 PM ACST (7/3)
Length of Visible Light 12h 10m
Length of Day
11h 24m
Waning Crescent, 23% of the Moon is Illuminated
Jul 3
Waning Crescent
Jul 8
New
Jul 16
First Quarter
Jul 23
Full
Jul 30
Last Quarter

Hourly Weather History & Observations

Time (ACST) Temp. Heat Index Dew Point Humidity Pressure Visibility Wind Dir Wind Speed Gust Speed Precip Events Conditions
12:00 AM 69 °F - 50 °F 39% 29.98 in 12 mi South 8.1 mph - -   Smoke
12:00 AM 68.0 °F - 50.0 °F 52% 29.98 in - South 8.1 mph - N/A   Clear
12:30 AM 68 °F - 49 °F 40% 29.98 in - South 8.1 mph - -  
12:30 AM 68.0 °F - 50.0 °F 52% 29.98 in - South 8.1 mph - N/A   Clear
1:00 AM 68.0 °F - 48.2 °F 49% 29.98 in - SSE 9.2 mph - N/A   Clear
1:30 AM 66.2 °F - 50.0 °F 56% 29.95 in - SSE 8.1 mph - N/A   Clear
2:00 AM 68.0 °F - 41.0 °F 37% 29.95 in - SE 9.2 mph - N/A   Clear
2:30 AM 66.2 °F - 41.0 °F 40% 29.95 in 5.6 mi SE 11.5 mph - N/A   Scattered Clouds
3:00 AM 66 °F - 42 °F 30% 29.96 in 6 mi SE 12.7 mph - -   Smoke
3:00 AM 66.2 °F - 42.8 °F 43% 29.95 in 5.6 mi SE 12.7 mph - N/A   Mostly Cloudy
3:30 AM 66.2 °F - 42.8 °F 43% 29.95 in - SE 10.4 mph - N/A   Clear
4:00 AM 66.2 °F - 44.6 °F 46% 29.95 in - SE 10.4 mph - N/A   Clear
4:30 AM 66.2 °F - 44.6 °F 46% 29.95 in - SE 9.2 mph - N/A   Clear
5:00 AM 66.2 °F - 48.2 °F 52% 29.95 in - SE 10.4 mph - N/A   Clear
5:30 AM 66.2 °F - 48.2 °F 52% 29.95 in - SE 9.2 mph - N/A   Clear
6:00 AM 65 °F - 49 °F 45% 29.96 in 16 mi SE 10.4 mph - -   Smoke
6:00 AM 66.2 °F - 48.2 °F 52% 29.95 in - SE 10.4 mph - N/A   Clear
6:30 AM 65 °F - 50 °F 49% 29.96 in - SE 11.5 mph - -  
6:30 AM 64.4 °F - 50.0 °F 59% 29.95 in - SE 11.5 mph - N/A   Clear
7:00 AM 64.4 °F - 51.8 °F 64% 29.98 in - SE 10.4 mph - N/A   Clear
7:30 AM 66.2 °F - 51.8 °F 60% 29.98 in - SE 10.4 mph - N/A   Clear
8:00 AM 66.2 °F - 53.6 °F 64% 29.98 in - ESE 10.4 mph - N/A   Clear
8:30 AM 68.0 °F - 53.6 °F 60% 29.98 in - SE 11.5 mph - N/A   Clear
9:00 AM 70 °F - 55 °F 49% 30.00 in 19 mi SE 11.5 mph - -   Partly Cloudy
9:00 AM 69.8 °F - 55.4 °F 60% 29.98 in - SE 11.5 mph - N/A   Clear
9:30 AM 72 °F - 54 °F 44% 30.00 in - ESE 15.0 mph - -  
9:30 AM 71.6 °F - 55.4 °F 57% 29.98 in - ESE 15.0 mph - N/A   Clear
10:00 AM 73.4 °F - 51.8 °F 47% 29.98 in - ESE 20.7 mph - N/A   Clear
10:30 AM 75.2 °F - 48.2 °F 38% 29.98 in - ESE 19.6 mph - N/A   Clear
11:00 AM 77.0 °F - 50.0 °F 39% 29.98 in - East 17.3 mph - N/A   Clear
11:30 AM 78.8 °F - 51.8 °F 39% 29.95 in - East 17.3 mph - N/A   Clear
12:00 PM 79 °F - 52 °F 29% 29.95 in 19 mi ESE 15.0 mph - -   Partly Cloudy
12:00 PM 78.8 °F - 51.8 °F 39% 29.95 in - ESE 15.0 mph - N/A   Clear
12:30 PM 80 °F - 52 °F 27% 29.94 in - East 12.7 mph - -  
12:30 PM 80.6 °F - 51.8 °F 37% 29.92 in - East 12.7 mph - N/A   Clear
1:00 PM 80.6 °F - 51.8 °F 37% 29.92 in - East 13.8 mph - N/A   Clear
1:30 PM 80.6 °F - 51.8 °F 37% 29.92 in - East 10.4 mph - N/A   Clear
2:00 PM 82.4 °F - 51.8 °F 35% 29.89 in - SE 11.5 mph - N/A   Clear
2:30 PM 82.4 °F - 51.8 °F 35% 29.89 in - SE 9.2 mph - N/A   Clear
3:00 PM 84 °F - 53 °F 24% 29.87 in 19 mi East 9.2 mph - -   Smoke
3:00 PM 84.2 °F 82.8 °F 53.6 °F 35% 29.86 in - East 9.2 mph - N/A   Clear
3:30 PM 83 °F - 53 °F 26% 29.86 in - WNW 9.2 mph - -  
3:30 PM 84.2 °F 82.8 °F 53.6 °F 35% 29.86 in - WNW 9.2 mph - N/A   Clear
4:00 PM 84.2 °F 82.8 °F 53.6 °F 35% 29.86 in - NW 9.2 mph - N/A   Clear
4:30 PM 82.4 °F 82.0 °F 57.2 °F 42% 29.86 in - WNW 9.2 mph - N/A   Clear
5:00 PM 80.6 °F 80.8 °F 57.2 °F 45% 29.86 in - NW 8.1 mph - N/A   Clear
5:30 PM 80.6 °F 80.8 °F 57.2 °F 45% 29.86 in - North 8.1 mph - N/A   Clear
6:00 PM 79 °F - 59 °F 40% 29.86 in 19 mi North 8.1 mph - -   Smoke
6:00 PM 78.8 °F - 59.0 °F 51% 29.86 in - North 8.1 mph - N/A   Clear
6:30 PM 77 °F - 60 °F 45% 29.87 in - NNW 6.9 mph - -  
6:30 PM 77.0 °F - 59.0 °F 54% 29.86 in - NNW 6.9 mph - N/A   Clear
7:00 PM 75.2 °F - 60.8 °F 61% 29.86 in - North 5.8 mph - N/A   Clear
7:30 PM 73.4 °F - 60.8 °F 65% 29.89 in - North 4.6 mph - N/A   Clear
8:00 PM 73.4 °F - 62.6 °F 69% 29.89 in - North 5.8 mph - N/A   Clear
8:30 PM 71.6 °F - 62.6 °F 73% 29.89 in - North 5.8 mph - N/A   Clear
9:00 PM 71 °F - 63 °F 70% 29.91 in 19 mi North 3.5 mph - -   Partly Cloudy
9:00 PM 71.6 °F - 62.6 °F 73% 29.89 in - North 3.5 mph - N/A   Clear
9:30 PM 69 °F - 62 °F 74% 29.91 in - North 4.6 mph - -  
9:30 PM 69.8 °F - 62.6 °F 78% 29.89 in - North 4.6 mph - N/A   Clear
10:00 PM 68.0 °F - 62.6 °F 83% 29.92 in - NNE 4.6 mph - N/A   Clear
10:30 PM 68.0 °F - 62.6 °F 83% 29.92 in - NE 4.6 mph - N/A   Clear
11:00 PM 68.0 °F - 62.6 °F 83% 29.92 in - NE 4.6 mph - N/A   Clear
11:30 PM 69.8 °F - 60.8 °F 73% 29.89 in - SSE 3.5 mph - N/A   Clear